Location: Vancouver
(49.2500°N, 123.1330°W)
Time: 02:39:06
(UTC-08:00)

Daily predictions for brighter satellites

Satellite Brightness Start Highest point End
(mag) Time Altitude Azimuth Time Altitude Azimuth Time Altitude Azimuth
CENTAUR R/B 4.3 03:31:17 29° NE 03:31:17 29° NE 03:34:35 10° NE
CZ-4C R/B 4.0 03:34:43 37° E 03:34:43 37° E 03:39:27 10° ESE
Cosmos 1844 Rocket 4.4 04:00:18 28° E 04:00:18 28° E 04:03:52 10° NE
Cosmos 2082 Rocket 4.0 04:23:04 22° NNE 04:24:39 25° NE 04:29:13 10° E
ATLAS CENTAUR R/B 3.9 04:30:33 19° ESE 04:30:33 19° ESE 04:31:58 10° ESE
Cosmos 1709 Rocket 4.4 04:34:24 10° S 04:40:36 63° E 04:46:55 10° NNE
Cosmos 1140 Rocket 3.9 04:51:37 59° ENE 04:51:37 59° ENE 04:56:08 10° NNE
IDEFIX/ARIANE 42P 4.2 04:47:15 10° NNE 04:52:00 33° E 04:56:43 10° SSE
Cosmos 1833 Rocket 4.0 04:50:49 25° N 04:53:18 36° NE 04:58:30 10° ESE
COSMOS 2455 3.4 04:57:12 46° N 04:57:12 46° N 05:01:49 10° NNE
USA 234 3.2 04:54:41 10° ENE 05:01:10 66° NNW 05:01:45 63° NW
CZ-4B R/B 3.5 04:57:36 10° NNE 05:01:41 54° N 05:01:41 54° N
Cosmos 2263 Rocket 3.9 05:06:04 20° N 05:06:04 20° N 05:08:16 10° NNE
Cosmos 1954 Rocket 4.0 05:05:16 72° NNE 05:05:16 72° NNE 05:09:57 10° NNE
SKYMED 2 4.3 05:01:46 10° SSE 05:05:01 47° SE 05:05:01 47° SE
SL-27 R/B 4.3 05:06:54 32° E 05:06:54 32° E 05:09:42 10° SE
EO 1 Del DPAF 4.5 05:03:13 10° SE 05:06:26 40° E 05:06:26 40° E
Cosmos 1023 Rocket 4.4 05:10:36 76° NNE 05:10:36 76° NNE 05:15:20 10° NNE
ATLAS 3B R/B 4.1 05:15:46 21° NNW 05:17:33 24° N 05:22:50 10° NE
CENTAUR R/B 3.5 05:18:27 34° NNW 05:19:02 35° NNW 05:25:47 10° NE
CZ-4C R/B 3.0 05:19:57 48° WSW 05:20:30 49° WSW 05:28:02 10° SSE
Cosmos 1174 4.0 05:26:55 68° NE 05:26:55 68° NE 05:30:31 10° SE
Cosmos 2074 Rocket 4.4 05:22:11 10° S 05:28:17 62° E 05:34:25 10° NNE
CZ-2C R/B 3.3 05:24:04 10° NNE 05:28:30 45° E 05:32:59 10° S
SL-08 ROCKET BODY 4.2 05:22:47 10° S 05:28:39 86° W 05:34:38 10° N
Cosmos 2278 Rocket 2.7 05:25:43 10° S 05:31:17 60° ESE 05:36:51 10° NE
Cosmos 1763 Rocket 4.4 05:27:38 16° N 05:31:30 45° ENE 05:36:24 10° SE
Cosmos 332 Rocket 4.3 05:33:11 42° SSW 05:33:11 42° SSW 05:36:45 10° S
Cosmos 304 Rocket 4.3 05:30:07 25° N 05:32:50 58° ENE 05:37:33 10° SE
Tiangong 2 3.5 05:33:43 17° SSE 05:33:43 17° SSE 05:35:52 10° ESE
Cosmos 1570 Rocket 3.8 05:32:57 52° NW 05:34:08 71° WSW 05:39:19 10° SSE
BREEZE-M DEB (TANK) 2.8 05:33:28 48° W 05:35:01 88° N 05:38:04 10° E
Cosmos 2181 Rocket 4.0 05:31:12 10° NNW 05:37:18 54° W 05:43:16 10° SSW
Feng Yun 1-1 Rocket 4.1 05:35:08 10° NNE 05:40:36 84° ESE 05:45:59 10° SSW
Cosmos 1766 Rocket 3.4 05:41:44 55° NW 05:42:32 69° W 05:46:55 10° S
Cosmos 1844 Rocket 2.8 05:42:01 46° WNW 05:42:41 49° NW 05:48:06 10° NNE
Cosmos 614 Rocket 4.0 05:44:05 49° W 05:44:34 51° WNW 05:49:33 10° NNE
IRS-1C Rocket 4.4 05:44:28 10° N 05:49:28 44° WNW 05:50:19 40° W
COSMO-SKYMED 1 3.0 05:50:04 10° S 05:53:37 40° WSW 05:53:37 40° WSW
BREEZE-M DEB (TANK) 3.1 05:54:12 49° W 05:55:07 76° SSW 06:03:53 10° ESE
Cosmos 1626 2.2 05:58:09 51° WSW 05:58:09 51° WSW 06:01:34 10° S
BREEZE-M DEB (TANK) 1.8 05:58:01 56° SSW 05:58:21 63° SSE 06:02:47 10° ENE
BREEZE-M DEB (TANK) 3.1 05:57:45 46° W 05:58:46 77° SSW 06:07:04 10° ESE
Cosmos 1741 Rocket 3.9 05:55:17 10° SSW 06:00:31 72° WNW 06:05:47 10° NNE
Okean-O 2.5 05:56:38 10° N 06:01:03 66° WNW 06:05:26 10° SSW
Cosmos 1844 4.0 06:01:13 28° WSW 06:03:46 45° NW 06:09:14 10° NNE
SJ-12 4.2 06:00:31 10° NNE 06:04:38 68° ESE 06:08:45 10° S
ATLAS CENTAUR R/B 2.2 06:06:50 31° WSW 06:06:56 31° WSW 06:10:44 10° S
Meteor 1-16 Rocket 4.1 06:02:37 10° SSW 06:08:07 60° WNW 06:13:30 10° N
Cosmos 1842 Rocket 4.1 06:04:12 10° S 06:08:37 62° E 06:13:04 10° NNE
Cosmos 2082 Rocket 2.1 06:04:56 17° NNW 06:09:22 77° WSW 06:14:57 10° SSE
Cosmos 1703 3.2 06:06:44 18° NNW 06:09:37 63° W 06:13:30 10° S
Cosmos 2327 Rocket 4.4 06:05:04 10° SSW 06:11:15 78° W 06:17:24 10° N
Meteor 1-11 4.4 06:09:39 10° NNW 06:15:13 50° W 06:20:47 10° SSW
Cosmos 371 Rocket 4.4 06:17:32 23° WSW 06:17:32 23° WSW 06:21:09 10° SSW
Cosmos 2058 2.9 06:15:52 10° NNW 06:20:04 64° W 06:24:12 10° S
Cosmos 2154 Rocket 4.1 06:14:08 10° S 06:20:20 81° E 06:26:36 10° N
Cosmos 540 Rocket 4.2 06:20:47 10° NNW 06:25:49 53° ENE 06:30:48 10° SE
SMAP 3.9 06:21:22 10° NNE 06:25:57 53° E 06:30:30 10° S
Cosmos-2242 3.5 06:22:16 10° SW 06:26:17 37° WNW 06:30:18 10° N
Abrixas rocket 4.1 06:26:02 16° SW 06:26:40 17° SSW 06:28:53 10° S
COSMOS 2441 4.3 06:24:20 10° N 06:29:06 65° WNW 06:33:51 10° SSW
Cosmos 1484 Rocket 2.8 06:25:39 10° NNE 06:29:24 76° ESE 06:33:09 10° S
USA 81 4.1 06:25:33 10° N 06:30:52 82° E 06:36:09 10° S
IDEFIX/ARIANE 42P 2.9 06:26:46 10° N 06:31:42 41° WNW 06:36:36 10° SW
Shenzhou-11 Module 3.8 06:30:31 15° SW 06:32:10 23° S 06:34:38 10° SE
Cosmos 2151 3.2 06:32:49 10° NNW 06:36:58 46° W 06:41:04 10° SSW
Cosmos 1833 Rocket 3.0 06:32:32 13° NW 06:37:22 46° WSW 06:42:43 10° S
Meteor 2-1 Rocket 4.1 06:32:33 10° SSW 06:38:04 80° WNW 06:43:43 10° N
CZ-4 R/B 2.4 06:34:30 10° NNE 06:38:33 50° E 06:42:28 10° S
Cosmos 2297 3.8 06:32:49 10° SSW 06:38:33 82° ESE 06:44:17 10° NNE
Cosmos 2184 Rocket 4.3 06:33:51 10° SW 06:39:51 46° WNW 06:45:57 10° N
SL-27 R/B 3.9 06:40:34 20° W 06:41:22 21° W 06:44:10 10° SSW
Meteor 2-15 Rocket 4.4 06:35:52 10° NNW 06:41:59 83° W 06:48:03 10° S
COSMOS 2455 4.3 06:40:22 15° WNW 06:43:08 20° NNW 06:47:30 10° NNE
USA 234 3.8 06:37:31 10° ENE 06:43:41 46° N 06:49:06 14° WNW
Radarsat Rocket 4.4 06:39:51 10° N 06:46:24 48° WNW 06:52:15 10° SW
Cosmos 1500 Rocket 3.9 06:42:38 10° NNW 06:46:52 44° W 06:51:01 10° SSW
Timation 2 Rocket 4.0 06:41:50 10° NNW 06:48:10 81° ENE 06:54:13 10° SSE
Thor Agena Rocket 3.8 06:43:45 10° S 06:48:52 53° W 06:54:04 10° NNW
Nadezhda 3 Rocket 4.2 06:48:00 10° NNW 06:54:05 50° W 07:00:07 10° SSW
Cosmos 482 Debris 2.8 06:54:40 21° WNW 06:55:43 56° NNE 06:57:56 10° E
Cosmos 1300 3.1 06:58:17 10° S 07:02:06 68° E 07:05:55 10° NNE
Cosmos 841 Rocket 3.8 06:58:25 10° NNW 07:03:22 46° WSW 07:08:14 10° S
AQUARIUS 4.1 07:00:00 10° N 07:04:29 68° WNW 07:08:57 10° SSW
Cosmos 2221 2.4 07:00:22 10° SSW 07:04:37 74° W 07:08:57 10° N
Cosmos 1295 Rocket 4.4 06:59:16 10° SSW 07:05:23 75° W 07:11:31 10° N
CORIOLIS 4.2 07:00:53 10° NNE 07:06:18 88° WNW 07:11:43 10° SSW
CZ-2C R/B 3.2 07:02:48 10° N 07:06:34 25° WNW 07:10:21 10° WSW
MSX 4.3 07:03:18 10° N 07:08:29 36° WNW 07:13:39 10° SW
USA 229 DEB 3.8 07:02:43 10° WSW 07:09:27 62° NW 07:16:25 10° NE
USA 229 3.8 07:02:49 10° WSW 07:09:33 63° NW 07:16:31 10° NE
Tiangong 2 3.0 07:07:13 10° WSW 07:09:56 25° S 07:12:39 10° ESE
ATLAS 3B R/B 3.7 07:04:05 10° NW 07:10:16 35° NNE 07:16:15 10° E
Sich 1 3.2 07:06:31 10° N 07:10:51 80° E 07:15:09 10° SSE
NOSS 3-1 (A) 3.8 07:05:52 10° SSW 07:11:38 70° SE 07:18:14 10° NE
CENTAUR R/B 4.1 07:06:00 10° NW 07:11:56 27° N 07:18:27 10° ENE
ALOS 3.2 07:07:35 10° NNE 07:12:12 54° E 07:16:46 10° S
Cosmos 1763 Rocket 4.4 07:08:49 10° NW 07:13:07 28° W 07:17:26 10° SSW
Meteor 2-10 4.1 07:08:46 10° S 07:14:04 89° WNW 07:19:13 10° NNE
Cosmos 2278 Rocket 3.0 07:10:48 10° WSW 07:15:45 30° NW 07:20:43 10° NNE
CSL-04 Rocket 3.7 07:10:39 10° N 07:15:59 63° WNW 07:21:14 10° SSW
Cosmos 1607 4.3 07:10:48 10° NW 07:17:20 73° NE 07:23:46 10° SE
IRAS Rocket 4.3 07:15:27 10° NNE 07:21:09 88° WNW 07:26:47 10° SSW
Cosmos 1486 Rocket 4.1 07:17:44 10° SSW 07:23:02 67° WNW 07:28:22 10° NNE
Cosmos 292 Rocket 3.9 07:20:25 10° NNW 07:25:12 59° WSW 07:29:58 10° S
ARGOS Delta rocket 4.0 07:21:08 10° S 07:26:03 81° WSW 07:31:18 10° NNW
In-Cosmos 22 Rocket 4.1 07:21:07 10° NNW 07:26:28 73° W 07:31:52 10° S
Cosmos 2366 rocket 4.2 07:22:25 10° S 07:28:47 90° E 07:35:10 10° N
